Weather History for Siren, WI

Change the Weather History Date:

Wednesday, November 21, 2012

  Actual Average Record
Temperature  
Mean Temperature 44 °F -  
Max Temperature 59 °F - - ()
Min Temperature 28 °F - - ()
Degree Days  
Heating Degree Days 22    
Moisture  
Dew Point 35 °F    
Average Humidity 66    
Maximum Humidity 100    
Minimum Humidity 42    
Precipitation  
Precipitation 0.00 in - - ()
Sea Level Pressure  
Sea Level Pressure 29.88 in    
Wind  
Wind Speed 6 mph (SSW)    
Max Wind Speed 15 mph    
Max Gust Speed 21 mph    
Visibility 10 miles    
Events      
T = Trace of Precipitation, MM = Missing Value Source: NWS Daily Summary

Daily Weather History Graph

Daily Weather History Graph

Search for Another Location

Airport:

Trip Planner

Search our weather history database for the weather conditions in past years. The results will help you decide how hot, cold, wet, or windy it might be!

Date:

Astronomy

Nov. 21, 2012 Rise Set
Actual Time 7:18 AM CST 4:32 PM CST
Civil Twilight 6:45 AM CST 5:05 PM CST
Nautical Twilight 6:08 AM CST 5:41 PM CST
Astronomical Twilight 5:33 AM CST 6:17 PM CST
Moon 1:06 PM CST (11/21) 12:18 AM CST (11/21)
Length of Visible Light 10h 19m
Length of Day
9h 13m
First Quarter, 62% of the Moon is Illuminated
Nov 21
First Quarter
Nov 28
Full
Dec 6
Last Quarter
Dec 13
New
Dec 19
First Quarter

Hourly Weather History & Observations

Time (CST) Temp. Windchill Dew Point Humidity Pressure Visibility Wind Dir Wind Speed Gust Speed Precip Events Conditions
12:15 AM 28.4 °F 24.6 °F 26.6 °F 93% 30.03 in 7.0 mi SE 3.5 mph - N/A   Clear
12:35 AM 28.4 °F 24.6 °F 26.6 °F 93% 30.03 in 7.0 mi South 3.5 mph - N/A   Clear
12:55 AM 30.2 °F 26.7 °F 28.4 °F 93% 30.03 in 5.0 mi South 3.5 mph - N/A   Clear
1:15 AM 32.0 °F 26.4 °F 32.0 °F 100% 30.02 in 7.0 mi South 5.8 mph - N/A   Clear
1:35 AM 33.8 °F 27.7 °F 32.0 °F 93% 30.01 in 7.0 mi South 6.9 mph - N/A   Clear
1:55 AM 33.8 °F 28.6 °F 32.0 °F 93% 30.01 in 7.0 mi South 5.8 mph - N/A   Clear
2:15 AM 35.6 °F 30.7 °F 32.0 °F 87% 30.00 in 10.0 mi South 5.8 mph - N/A   Clear
2:35 AM 35.6 °F 28.6 °F 32.0 °F 87% 29.98 in 10.0 mi South 9.2 mph - N/A   Clear
2:55 AM 37.4 °F 30.8 °F 32.0 °F 81% 29.98 in 10.0 mi South 9.2 mph - N/A   Clear
3:15 AM 41.0 °F 35.2 °F 32.0 °F 70% 29.96 in 10.0 mi SSW 9.2 mph - N/A   Clear
3:35 AM 41.0 °F 36.4 °F 32.0 °F 70% 29.96 in 10.0 mi South 6.9 mph - N/A   Clear
3:55 AM 42.8 °F 38.6 °F 32.0 °F 66% 29.96 in 10.0 mi SSW 6.9 mph - N/A   Clear
4:15 AM 42.8 °F 37.0 °F 32.0 °F 66% 29.96 in 10.0 mi SSW 10.4 mph - N/A   Clear
4:35 AM 42.8 °F 37.5 °F 32.0 °F 66% 29.95 in 10.0 mi SSW 9.2 mph - N/A   Clear
4:55 AM 42.8 °F 38.6 °F 32.0 °F 66% 29.95 in 10.0 mi SSW 6.9 mph - N/A   Clear
5:15 AM 42.8 °F 38.6 °F 32.0 °F 66% 29.95 in 10.0 mi SSW 6.9 mph - N/A   Clear
5:35 AM 42.8 °F 38.0 °F 32.0 °F 66% 29.94 in 10.0 mi SSW 8.1 mph - N/A   Clear
5:55 AM 42.8 °F 38.0 °F 32.0 °F 66% 29.95 in 10.0 mi SSW 8.1 mph - N/A   Clear
6:15 AM 42.8 °F 39.3 °F 32.0 °F 66% 29.95 in 10.0 mi SSW 5.8 mph - N/A   Clear
6:35 AM 41.0 °F 36.4 °F 32.0 °F 70% 29.94 in 10.0 mi SSW 6.9 mph - N/A   Clear
6:55 AM 41.0 °F 36.4 °F 32.0 °F 70% 29.94 in 10.0 mi South 6.9 mph - N/A   Clear
7:15 AM 41.0 °F 38.0 °F 32.0 °F 70% 29.95 in 10.0 mi SSE 4.6 mph - N/A   Clear
7:35 AM 41.0 °F 38.0 °F 32.0 °F 70% 29.95 in 10.0 mi SSE 4.6 mph - N/A   Clear
7:55 AM 39.2 °F 35.0 °F 32.0 °F 75% 29.94 in 10.0 mi South 5.8 mph - N/A   Clear
8:15 AM 39.2 °F 35.0 °F 32.0 °F 75% 29.95 in 10.0 mi South 5.8 mph - N/A   Clear
8:35 AM 39.2 °F 35.0 °F 32.0 °F 75% 29.94 in 10.0 mi South 5.8 mph - N/A   Clear
8:55 AM 41.0 °F 38.0 °F 33.8 °F 76% 29.94 in 10.0 mi South 4.6 mph - N/A   Clear
9:15 AM 42.8 °F 39.3 °F 33.8 °F 70% 29.94 in 10.0 mi South 5.8 mph - N/A   Clear
9:35 AM 42.8 °F 40.1 °F 33.8 °F 70% 29.94 in 10.0 mi South 4.6 mph - N/A   Clear
9:55 AM 46.4 °F 43.5 °F 35.6 °F 66% 29.93 in 10.0 mi SW 5.8 mph - N/A   Clear
10:15 AM 48.2 °F - 35.6 °F 62% 29.94 in 10.0 mi WSW 8.1 mph - N/A   Clear
10:35 AM 50.0 °F - 35.6 °F 58% 29.93 in 10.0 mi WSW 6.9 mph - N/A   Clear
10:55 AM 50.0 °F - 35.6 °F 58% 29.92 in 10.0 mi West 9.2 mph - N/A   Clear
11:15 AM 50.0 °F - 35.6 °F 58% 29.91 in 10.0 mi WSW 6.9 mph - N/A   Clear
11:35 AM 50.0 °F - 35.6 °F 58% 29.91 in 10.0 mi WSW 4.6 mph - N/A   Clear
11:55 AM 51.8 °F - 35.6 °F 54% 29.91 in 10.0 mi West 5.8 mph - N/A   Clear
12:15 PM 51.8 °F - 35.6 °F 54% 29.90 in 10.0 mi West 5.8 mph - N/A   Clear
12:35 PM 53.6 °F - 35.6 °F 51% 29.90 in 10.0 mi WSW 3.5 mph - N/A   Clear
12:55 PM 53.6 °F - 35.6 °F 51% 29.89 in 10.0 mi SW 3.5 mph - N/A   Clear
1:15 PM 53.6 °F - 35.6 °F 51% 29.88 in 10.0 mi SSW 4.6 mph - N/A   Clear
1:35 PM 55.4 °F - 35.6 °F 47% 29.87 in 10.0 mi SW 4.6 mph - N/A   Clear
1:55 PM 57.2 °F - 35.6 °F 44% 29.87 in 10.0 mi SW 5.8 mph - N/A   Clear
2:15 PM 59.0 °F - 35.6 °F 42% 29.86 in 10.0 mi South 6.9 mph - N/A   Clear
2:35 PM 57.2 °F - 35.6 °F 44% 29.86 in 10.0 mi SSW 5.8 mph - N/A   Clear
2:55 PM 55.4 °F - 35.6 °F 47% 29.86 in 10.0 mi SSW 6.9 mph - N/A   Clear
3:15 PM 55.4 °F - 35.6 °F 47% 29.86 in 10.0 mi SSW 8.1 mph - N/A   Clear
3:35 PM 55.4 °F - 35.6 °F 47% 29.86 in 10.0 mi South 8.1 mph - N/A   Clear
3:55 PM 53.6 °F - 35.6 °F 51% 29.85 in 10.0 mi SSW 4.6 mph - N/A   Clear
4:15 PM 51.8 °F - 35.6 °F 54% 29.85 in 10.0 mi Calm Calm - N/A   Clear
4:35 PM 51.8 °F - 35.6 °F 54% 29.85 in 10.0 mi South 3.5 mph - N/A   Clear
4:55 PM 50.0 °F - 35.6 °F 58% 29.84 in 10.0 mi SSE 3.5 mph - N/A   Clear
5:15 PM 42.8 °F - 33.8 °F 70% 29.83 in 10.0 mi Calm Calm - N/A   Clear
5:35 PM 44.6 °F 43.1 °F 35.6 °F 71% 29.82 in 10.0 mi SSE 3.5 mph - N/A   Clear
5:55 PM 41.0 °F 39.0 °F 33.8 °F 76% 29.81 in 10.0 mi SSE 3.5 mph - N/A   Clear
6:15 PM 42.8 °F - 33.8 °F 70% 29.81 in 10.0 mi Calm Calm - N/A   Clear
6:35 PM 39.2 °F - 33.8 °F 81% 29.80 in 10.0 mi Calm Calm - N/A   Clear
6:55 PM 37.4 °F 34.9 °F 33.8 °F 87% 29.79 in 10.0 mi SSE 3.5 mph - N/A   Clear
7:15 PM 37.4 °F 33.8 °F 33.8 °F 87% 29.78 in 10.0 mi SSE 4.6 mph - N/A   Clear
7:35 PM 44.6 °F 41.4 °F 35.6 °F 71% 29.77 in 10.0 mi South 5.8 mph - N/A   Clear
7:55 PM 48.2 °F - 37.4 °F 66% 29.76 in 10.0 mi South 6.9 mph - N/A   Clear
8:15 PM 48.2 °F - 37.4 °F 66% 29.76 in 10.0 mi South 6.9 mph - N/A   Clear
8:35 PM 50.0 °F - 37.4 °F 62% 29.76 in 10.0 mi South 6.9 mph - N/A   Clear
8:55 PM 53.6 °F - 37.4 °F 54% 29.76 in 10.0 mi SSW 9.2 mph - N/A   Clear
9:15 PM 55.4 °F - 39.2 °F 54% 29.75 in 10.0 mi SSW 10.4 mph - N/A   Clear
9:35 PM 55.4 °F - 39.2 °F 54% 29.74 in 10.0 mi SSW 10.4 mph 19.6 mph N/A   Clear
9:55 PM 55.4 °F - 39.2 °F 54% 29.73 in 10.0 mi SSW 12.7 mph 20.7 mph N/A   Clear
10:15 PM 55.4 °F - 39.2 °F 54% 29.72 in 10.0 mi SSW 11.5 mph 18.4 mph N/A   Clear
10:35 PM 55.4 °F - 39.2 °F 54% 29.71 in 10.0 mi SSW 9.2 mph 19.6 mph N/A   Clear
10:55 PM 55.4 °F - 39.2 °F 54% 29.70 in 10.0 mi SSW 10.4 mph 17.3 mph N/A   Clear
11:15 PM 55.4 °F - 41.0 °F 58% 29.70 in 10.0 mi SSW 15.0 mph 20.7 mph N/A   Clear
11:35 PM 55.4 °F - 41.0 °F 58% 29.69 in 10.0 mi SSW 12.7 mph 20.7 mph N/A   Clear
11:55 PM 55.4 °F - 41.0 °F 58% 29.69 in 10.0 mi SSW 12.7 mph 19.6 mph N/A   Clear